Lake Fork, ID

10:35 AM MST on February 10, 2016 (GMT -0700)
McCall

Weather History for KMYL - May, 2013

Change the Weather History Date:

Thursday, May 23, 2013

  Actual Average Record
Temperature  
Mean Temperature 39 °F 48 °F  
Max Temperature 55 °F 61 °F 82 °F (2001)
Min Temperature 23 °F 35 °F 20 °F (1944)
Degree Days  
Heating Degree Days 26 17  
Month to date heating degree days 328 462  
Since 1 July heating degree days 8219 9097  
Cooling Degree Days 0 0  
Month to date cooling degree days 0 0  
Year to date cooling degree days 0 0  
Moisture  
Dew Point 18 °F    
Average Humidity 49    
Maximum Humidity 81    
Minimum Humidity 17    
Precipitation  
Precipitation 0.00 in 0.07 in 1.01 in (1942)
Month to date precipitation 0.85 1.61  
Year to date precipitation 8.47 9.20  
Sea Level Pressure  
Sea Level Pressure 29.93 in    
Wind  
Wind Speed 4 mph (WNW)    
Max Wind Speed 16 mph    
Max Gust Speed 23 mph    
Visibility 10 miles    
Events      
T = Trace of Precipitation, MM = Missing Value Source: NWS Daily Summary

Daily Weather History Graph

Daily Weather History Graph

Search for Another Location

Airport or City:

Trip Planner

Search our weather history database for the weather conditions in past years. The results will help you decide how hot, cold, wet, or windy it might be!

Date:

Astronomy

May. 23, 2013 Rise Set
Actual Time 6:07 AM MDT 9:15 PM MDT
Civil Twilight 5:32 AM MDT 9:50 PM MDT
Nautical Twilight 4:46 AM MDT 10:36 PM MDT
Astronomical Twilight 3:51 AM MDT 11:31 PM MDT
Moon 7:50 PM MDT (5/23) 5:00 AM MDT (5/23)
Length of Visible Light 16h 18m
Length of Day
15h 08m
Waxing Gibbous, 97% of the Moon is Illuminated
May 23
Waxing Gibbous
May 24
Full
May 31
Last Quarter
Jun 8
New
Jun 16
First Quarter

Hourly Weather History & Observations

Time (MDT) Temp. Windchill Dew Point Humidity Pressure Visibility Wind Dir Wind Speed Gust Speed Precip Events Conditions
12:51 AM 28.0 °F - 21.9 °F 78% 29.99 in 10.0 mi Calm Calm - N/A   Clear
1:51 AM 28.9 °F 23.9 °F 23.0 °F 78% 29.98 in 10.0 mi North 4.6 mph - N/A   Clear
2:51 AM 27.0 °F - 21.0 °F 78% 29.97 in 10.0 mi Calm Calm - N/A   Clear
3:51 AM 24.1 °F - 19.0 °F 81% 29.98 in 10.0 mi Calm Calm - N/A   Clear
4:51 AM 24.1 °F - 19.0 °F 81% 29.97 in 10.0 mi Calm Calm - N/A   Clear
5:51 AM 23.0 °F - 18.0 °F 81% 29.96 in 10.0 mi Calm Calm - N/A   Clear
6:51 AM 24.1 °F - 19.9 °F 84% 29.95 in 10.0 mi Calm Calm - N/A   Clear
7:51 AM 28.9 °F - 23.0 °F 78% 29.96 in 10.0 mi Calm Calm - N/A   Clear
8:51 AM 34.0 °F - 21.0 °F 59% 29.94 in 10.0 mi Calm Calm - N/A   Clear
9:51 AM 39.9 °F 37.8 °F 18.0 °F 41% 29.94 in 10.0 mi SSW 3.5 mph - N/A   Clear
10:51 AM 43.0 °F - 17.1 °F 35% 29.91 in 10.0 mi Calm Calm - N/A   Clear
11:51 AM 48.0 °F - 7.0 °F 19% 29.89 in 10.0 mi Variable 3.5 mph - N/A   Clear
12:51 PM 50.0 °F - 9.0 °F 19% 29.88 in 10.0 mi NW 8.1 mph - N/A   Clear
1:51 PM 51.1 °F - 10.9 °F 20% 29.87 in 10.0 mi WNW 4.6 mph 18.4 mph N/A   Clear
2:51 PM 51.1 °F - 8.1 °F 18% 29.88 in 10.0 mi Variable 3.5 mph - N/A   Clear
3:51 PM 53.1 °F - 12.0 °F 20% 29.88 in 10.0 mi Variable 6.9 mph 16.1 mph N/A   Clear
4:51 PM 53.1 °F - 16.0 °F 23% 29.88 in 10.0 mi West 9.2 mph 18.4 mph N/A   Clear
5:51 PM 53.1 °F - 16.0 °F 23% 29.90 in 10.0 mi West 6.9 mph - N/A   Clear
6:51 PM 51.1 °F - 19.0 °F 28% 29.90 in 10.0 mi NNW 10.4 mph - N/A   Clear
7:51 PM 50.0 °F - 19.9 °F 31% 29.89 in 10.0 mi West 9.2 mph - N/A   Clear
8:51 PM 46.9 °F - 24.1 °F 41% 29.91 in 10.0 mi West 5.8 mph - N/A   Partly Cloudy
9:51 PM 43.0 °F 40.3 °F 25.0 °F 49% 29.92 in 10.0 mi WNW 4.6 mph - N/A   Clear
10:51 PM 43.0 °F 41.3 °F 25.0 °F 49% 29.93 in 10.0 mi NNE 3.5 mph - N/A   Clear
11:51 PM 39.0 °F - 25.0 °F 57% 29.94 in 10.0 mi Calm Calm - N/A   Clear